Regional Weather Roundup
Issued by NWS

Home | Current Version | Previous Version | Graphics & Text | Print | Product List | Glossary On
Versions: 1 2 3 4 5 6 7 8 9 10 11 12 13 14 15 16 17 18 19 20 21 22 23 24 25 26 27 28 29 30 31 32 33 34 35 36 37 38 39 40 41 42 43 44 45 46 47 48 49 50
000
ASUS43 KLMK 270110
RWRKY
KENTUCKY REGIONAL WEATHER ROUNDUP
NATIONAL WEATHER SERVICE LOUISVILLE KY
900 PM EDT SAT MAY 26 2018

NOTE "FAIR" INDICATES FEW OR NO CLOUDS BELOW 12,000 FEET
WITH NO SIGNIFICANT WEATHER AND/OR OBSTRUCTIONS TO VISIBILITY.

KYZ001>023-026-027-061>063-070>075-270200-
WESTERN AND SOUTH CENTRAL KENTUCKY

CITY           SKY/WX    TMP DP  RH WIND       PRES   REMARKS
PADUCAH        FAIR      81  71  71 CALM      29.81R
HENDERSON      FAIR      82  70  66 SW7       29.82R
OWENSBORO      FAIR      81  71  71 SW6       29.83R
HOPKINSVILLE   FAIR      78  70  76 S7        29.84R
BOWLING GREEN  FAIR      78  70  76 S7        29.86R
GLASGOW        FAIR      73  67  81 CALM      29.87R
$$

KYZ024-025-028>034-038-045-046-053-270200-
NORTH CENTRAL KENTUCKY

CITY           SKY/WX    TMP DP  RH WIND       PRES   REMARKS
LOUISVILLE/SDF MOCLDY    83  67  58 SW6       29.82R
LOUISVILLE/LOU FAIR      82  69  64 SW6       29.82R
FORT KNOX      FAIR      78  69  73 S6        29.84R
$$

KYZ035>037-039>044-047>052-055>060-089>105-270200-
NORTHEAST KENTUCKY

CITY           SKY/WX    TMP DP  RH WIND       PRES   REMARKS
LEXINGTON      FAIR      78  68  71 CALM      29.87R
COVINGTON      MOCLDY    73  66  78 S8        29.83R
FRANKFORT      FAIR      78  67  68 S6        29.84R
$$

KYZ054-064>069-076>088-106>120-270200-
SOUTHEAST KENTUCKY

CITY           SKY/WX    TMP DP  RH WIND       PRES   REMARKS
JACKSON        FAIR      73  68  84 CALM      29.91R
LONDON         LGT RAIN  72  69  90 S5        29.90S
SOMERSET       FAIR      72  64  78 MISG      29.90R
MIDDLESBORO    FAIR      68  68 100 CALM      29.93R
MONTICELLO     FAIR      73  67  81 NE5       29.91R
$$




USA.gov is the U.S. government's official web portal to all federal, state and local government web resources and services.